Back to catalog

CO3D3

AliveScienceSSO
NORAD 64900·PAYLOAD·🇫🇷 France

Launched Jul 26, 2025 from Guiana Space Centre

Loading…

Next Passes (next 24 hours)

TLE

FreshSource: Space-Track

Epoch: Sep 14, 2026, 12:13 UTC

1 64900U 25156B   26257.50915450  .00003067  00000-0  14475-3 0  9999
2 64900  97.4345 334.9188 0001141 117.7983 242.3367 15.20202706 63104

Track CO3D3 in real time with AllMySat

Download on the App Store